User: anonymous   Login
Location: Unspecified
(0.0000°N, 0.0000°E)
Time: 12:51:13
(UTC+00:00)
Language:

Jawsat - Orbit

View from above orbital plane
View from above orbital plane
View from above satellite
View from above satellite

Ground track
Ground track

The orbit data is extracted from the following two-line orbital elements,

1 26061U 00004A   20333.57332009 +.00000132 +00000-0 +59001-4 0  9994
2 26061 100.1943 270.2260 0033018 241.7635 118.0214 14.41427973094683
Epoch (UTC): 28 November 2020 13:45:34
Eccentricity: 0.0033018
inclination: 100.1943°
perigee height: 730 km
apogee height: 777 km
right ascension of ascending node: 270.2260°
argument of perigee: 241.7635°
revolutions per day: 14.41427973
mean anomaly at epoch: 118.0214°
orbit number at epoch: 9468

The dashed part of the orbit path shows where the satellite is in the earth's shadow,  

DLR